Flag for China Weather past 2 weeks in Langfang, Hebei, China

Now
59 °F

Clear.


Feels Like: 59 °F
Forecast: 56 / 83 °F
Wind: 1 mph from East

Location: Beijing Airport

Current Time: Apr 29, 2015 at 4:10:21 AM

Latest Report: Apr 29, 2015 at 3:30 AM


Visibility: 4 mi

Pressure: 29.98 "Hg

Humidity: 88%

Dew point: 55 °F

Location of LangfangLocation

Historic Weather in Langfang — Graph

°F

Langfang temperature yesterday

Maximum temperature yesterday: 79 °F (at 3:00 PM)
Minimum temperature yesterday: 61 °F (at 3:30 AM)
Average temperature yesterday: 68 °F

Past Weeks' High & Low Weather Summary

 TemperatureHumidityPressure
High90 °F (Apr 25, 2:00 PM)93% (Apr 14, 3:00 AM)30.24 "Hg (Apr 14, 3:00 AM)
Low39 °F (Apr 14, 4:30 AM)6% (Apr 23, 4:30 PM)29.36 "Hg (Apr 15, 3:30 PM)
Average66 °F43%29.86 "Hg
* Reported Apr 14 2:00 AM — Apr 29 2:30 AM, Langfang, Weather by CustomWeather, © 2015

Note: Actual official high and low records may vary slightly from our data, if they occured in-between our weather recording intervals... More about our weather records

Advertising

Langfang weather history for previous 24 hours

 ConditionsComfort  
Time TempWeatherWind HumidityBarometerVisibility
2:30 AM
Wed, Apr 29
61 °FClear.3 mph83%29.98 "Hg4 mi
2:00 AM61 °FClear.1 mph83%29.98 "Hg4 mi
1:30 AM63 °FClear.3 mph77%29.95 "Hg4 mi
1:00 AM63 °FClear.3 mph77%29.98 "Hg4 mi
12:30 AM64 °FClear.6 mph73%29.98 "Hg4 mi
12:00 AM64 °FClear.3 mph73%29.98 "Hg4 mi
11:30 PM
Tue, Apr 28
64 °FClear.6 mph73%29.95 "Hg4 mi
11:00 PM66 °FClear.8 mph73%29.95 "Hg5 mi
10:30 PM66 °FClear.8 mph73%29.95 "Hg5 mi
10:00 PM68 °FClear.6 mph64%29.92 "Hg10 mi
9:30 PM68 °FClear.3 mph60%29.92 "Hg10 mi
9:00 PM66 °FClear.1 mph64%29.92 "Hg10 mi
8:30 PM68 °FClear.1 mph60%29.92 "Hg10 mi
8:00 PM68 °FClear.1 mph56%29.89 "Hg10 mi
7:30 PM72 °FClear.1 mph50%29.89 "Hg10 mi
7:00 PM72 °FSunny.1 mph50%29.89 "Hg10 mi
6:30 PM73 °FPassing clouds.3 mph47%29.86 "HgN/A
6:00 PM75 °FPassing clouds.3 mph44%29.86 "HgN/A
5:30 PM77 °FPassing clouds.3 mph42%29.86 "HgN/A
5:00 PM77 °FSunny.1 mph39%29.86 "Hg10 mi
4:30 PM77 °FSunny.3 mph42%29.86 "Hg10 mi
4:00 PM77 °FPassing clouds.3 mph42%29.86 "HgN/A
3:30 PM77 °FSunny.3 mph42%29.86 "Hg10 mi
3:00 PM79 °FSunny.1 mph39%29.86 "Hg10 mi
2:30 PM75 °FSunny.3 mph47%29.89 "Hg10 mi
2:00 PM75 °FSunny.1 mph47%29.89 "Hg10 mi
1:30 PM75 °FPassing clouds.6 mph47%29.89 "HgN/A
1:00 PM73 °FPassing clouds.6 mph47%29.89 "HgN/A
12:30 PM73 °FPassing clouds.8 mph50%29.89 "HgN/A
11:30 AM72 °FPassing clouds.3 mph50%29.89 "HgN/A
11:00 AM72 °FSunny.8 mph53%29.89 "Hg10 mi
10:30 AM72 °FSunny.8 mph61%29.89 "Hg10 mi
10:00 AM72 °FPassing clouds.6 mph57%29.89 "HgN/A
9:30 AM72 °FPassing clouds.3 mph57%29.89 "HgN/A
9:00 AM70 °FPassing clouds.6 mph60%29.86 "HgN/A
8:30 AM66 °FSunny.6 mph68%29.86 "Hg10 mi
8:00 AM66 °FSunny.6 mph73%29.86 "Hg10 mi
7:30 AM64 °FSunny.3 mph73%29.83 "Hg10 mi
7:00 AM63 °FSunny.3 mph83%29.83 "Hg10 mi
6:30 AM63 °FSunny.3 mph77%29.80 "Hg10 mi
6:00 AM63 °FSunny.3 mph77%29.80 "Hg10 mi
5:30 AM61 °FPassing clouds.3 mph83%29.77 "HgN/A
5:00 AM61 °FClear.3 mph83%29.77 "Hg10 mi
4:30 AM61 °FClear.3 mph77%29.77 "Hg10 mi
4:00 AM61 °FClear.6 mph77%29.74 "Hg10 mi
Weather by CustomWeather, © 2015

See weather overviewHow to use our weather pages